📊 Raw Sensor Data

Showing records 33326 to 33350 of 84,767 total

ID Distance (ft) Battery V Battery A Int Temp (°F) Int Humid (%) Ext Temp (°F) Solar V RSSI SNR Time Stamp
51454 14.7 3.95 -5 62 45 64 0.00 -66 8 09/08/2025 10:45 PM
51453 14.6 4.00 -5 63 45 65 0.00 -67 8 09/08/2025 10:30 PM
51452 14.6 3.95 -5 63 46 64 0.00 -66 8 09/08/2025 10:15 PM
51451 14.6 3.95 -5 64 46 64 0.00 -66 8 09/08/2025 10:00 PM
51450 14.7 3.95 -5 64 46 66 0.00 -66 7 09/08/2025 09:45 PM
51449 14.7 3.95 -5 65 46 66 0.00 -67 8 09/08/2025 09:30 PM
51448 14.7 3.95 -5 65 47 66 0.00 -73 8 09/08/2025 09:15 PM
51447 14.7 4.01 -5 66 47 67 0.00 -74 7 09/08/2025 09:00 PM
51446 14.7 4.01 -5 66 48 67 0.00 -73 8 09/08/2025 08:45 PM
51445 14.7 3.95 -5 67 49 67 0.00 -74 8 09/08/2025 08:30 PM
51444 14.7 3.96 -5 68 50 68 0.10 -74 8 09/08/2025 08:15 PM
51443 14.7 3.96 -5 69 51 69 0.00 -73 8 09/08/2025 08:00 PM
51442 14.7 4.01 -5 71 52 70 0.00 -73 8 09/08/2025 07:45 PM
51441 14.7 3.95 -9 73 54 71 3.30 -74 7 09/08/2025 07:30 PM
51440 14.7 4.02 -5 78 53 72 4.50 -73 5 09/08/2025 07:15 PM
51439 14.8 4.03 0 82 52 77 4.50 -74 7 09/08/2025 07:00 PM
51438 14.8 4.06 7 86 50 78 4.60 -74 8 09/08/2025 06:45 PM
51437 14.8 4.05 35 88 49 80 4.50 -75 7 09/08/2025 06:30 PM
51436 14.8 4.01 5 90 48 80 5.10 -74 8 09/08/2025 06:15 PM
51435 14.9 4.01 5 91 48 81 5.10 -73 8 09/08/2025 06:00 PM
51434 14.9 4.00 5 93 46 83 5.10 -74 7 09/08/2025 05:45 PM
51433 14.9 4.01 5 92 46 82 5.10 -75 7 09/08/2025 05:30 PM
51432 14.9 4.05 0 92 46 82 5.10 -74 7 09/08/2025 05:15 PM
51431 15.0 4.00 0 92 45 83 5.10 -75 7 09/08/2025 05:00 PM
51430 14.9 4.01 5 91 47 82 5.10 -74 7 09/08/2025 04:45 PM